Regional Weather Roundup
Issued by NWS New Orleans/Baton Rouge, LA

Home | Current Version | Previous Version | Text Only | Print | Product List | Glossary Off
Versions: 1 2 3 4 5 6 7 8 9 10 11 12 13 14 15 16 17 18 19 20 21 22 23 24 25 26 27 28 29 30 31 32 33 34 35 36 37 38 39 40 41 42 43 44 45 46 47 48 49 50

215
ASUS44 KLIX 300105
RWRLIX
NEW ORLEANS REGIONAL WEATHER ROUNDUP
NATIONAL WEATHER SERVICE NEW ORLEANS LA
800 PM CDT FRI AUG 29 2014

NOTE: "FAIR" INDICATES FEW OR NO CLOUDS BELOW 12,000 FEET WITH NO
      SIGNIFICANT WEATHER AND/OR OBSTRUCTIONS TO VISIBILITY.
      SKY/WX - SKY CONDITION AND SIGNIFICANT WEATHER.
      TMP - AIR TEMPERATURE.     DP    - DEWPOINT TEMPERATURE.
      RH  - RELATIVE HUMIDITY.   PRES  - PRESSURE.
      HI  - HEAT INDEX.          WCI   - WIND CHILL INDEX.

*  THESE STATIONS ARE NOT NWS OR FAA STATIONS AND ARE NOT UNDER
   NWS QUALITY CONTROL.

LAZ038-040-048-061>063-065>067-069-300200-
SOUTHEAST LOUISIANA

CITY           SKY/WX    TMP DP  RH WIND       PRES   REMARKS
N.O. AUDUBON   NOT AVBL
N.O. INTL ARPT CLOUDY    79  75  87 SE8       29.94S
N.O. LAKEFRONT CLOUDY    79  76  90 SE12      29.94F
N.O. DOWNTOWN* MOCLDY    79  72  78 SE3       29.95R
SLIDELL        CLOUDY    77  75  93 E5        29.95F
BATON ROUGE    CLOUDY    78  75  90 CALM      29.93F
BOOTHVILLE     CLOUDY    78  77  96 CALM      29.98F
BELLE CHASSE   CLOUDY    79  74  84 SE10      29.93F
BOGALUSA*      CLOUDY    77  73  87 SE3       29.99S
GALLIANO*      NOT AVBL
NEW ROADS*       N/A     78  73  84 SE5       29.94S
GONZALES*        N/A     77  77 100 SE5       29.94R
HAMMOND*       CLOUDY    77  72  83 E7        29.95F
HOUMA*         CLOUDY    75  73  92 E3        29.93F
PORT FOURCHON* CLEAR     79  73  83 SE6       29.96R

$$

MSZ070-080>082-300200-
SOUTHERN MISSISSIPPI

CITY           SKY/WX    TMP DP  RH WIND       PRES   REMARKS
MCCOMB         CLOUDY    77  73  87 SE8       29.97R
GULFPORT       CLOUDY    78  75  90 E5        29.97F
BILOXI         CLOUDY    78  75  90 E3        29.98S
PASCAGOULA     CLOUDY    77  75  93 CALM      29.99R

$$

COASTAL OBSERVATIONS
LAKE AND NEARSHORE STATIONS

STATION/POSITION TIME  TEMP    WIND        PRES    WAVE
                       AIR SEA DIR/SP/G            HT/PER
                 (UTC) (F)     (DEG/KT/KT) (MB)    (FT/S)
PASCAGOULA       0100   82     130/  5/  6 1015.1
WAVELAND YACHT   0100   78     110/  7/  8 1014.3
GRAND ISLE       0100   77 83  130/  4/  5 1014.4
SOUTHWEST PASS   0100   77 88   60/  5/  5 1015.1
NEW CANAL        0100   80 83   CALM  /  2 1014.0
SHELL BEACH      0100   78 81  140/ 12/ 15 1014.3

OFFSHORE STATIONS

STATION/POSITION TIME  TEMP    WIND        PRES    WAVE
                       AIR SEA DIR/SP/G            HT/PER
                 (UTC) (F)     (DEG/KT/KT) (MB)    (FT/S)
64 S DAUPHIN ISL 0007   80 84  210/  2/  4 1016.1

$$




USA.gov is the U.S. government's official web portal to all federal, state and local government web resources and services.